Location: Observatoire du C�gep de Trois-Rivi�res � Champlain
(46.4753°N, 72.3231°W)
Time: 08:54:28
(UTC-05:00)

N. Korean satellite - Visible Passes

Search period start: 20 February 2018 00:00
Search period end: 02 March 2018 00:00
Orbit: 459 x 514 km, 97.2° (Epoch: 20 February)

Date Brightness Start Highest point End Pass type
(mag) Time Alt. Az. Time Alt. Az. Time Alt. Az.
20 Feb 10.3 05:28:20 10° ENE 05:30:11 13° E 05:32:04 10° ESE visible
21 Feb 10.2 18:51:07 10° WSW 18:52:31 12° W 18:53:56 10° WNW visible
22 Feb 9.4 18:25:48 10° SSW 18:28:34 22° W 18:31:23 10° NW visible
23 Feb 9.5 05:49:36 10° NE 05:52:38 24° E 05:55:41 10° SSE visible
23 Feb 8.0 18:01:24 10° S 18:04:42 43° W 18:08:04 10° NNW visible
24 Feb 10.3 05:26:53 10° ENE 05:28:42 13° E 05:30:32 10° ESE visible
25 Feb 10.2 18:49:24 10° WSW 18:50:59 13° W 18:52:34 10° WNW visible
26 Feb 9.4 18:24:11 10° SSW 18:27:01 23° W 18:29:54 10° NW visible
27 Feb 9.6 05:48:06 10° NE 05:51:07 23° E 05:54:09 10° SSE visible
27 Feb 7.9 17:59:48 10° S 18:03:08 44° W 18:06:34 10° NNW visible
28 Feb 10.4 05:25:23 10° ENE 05:27:10 13° E 05:28:56 10° ESE visible
01 Mar 10.1 18:47:39 10° WSW 18:49:24 13° W 18:51:09 10° WNW visible
